Regional Weather Roundup
Issued by NWS Green Bay, WI

Home | Current Version | Previous Version | Text Only | Print | Product List | Glossary On
Versions: 1 2 3 4 5 6 7 8 9 10 11 12 13 14 15 16 17 18 19 20 21 22 23 24 25 26 27 28 29 30 31 32 33 34 35 36 37 38 39 40 41 42 43 44 45 46 47 48 49 50
000
ASUS43 KGRB 311359
RWRGRB

NORTH-CENTRAL AND NORTHEAST WISCONSIN REGIONAL WEATHER ROUNDUP
NATIONAL WEATHER SERVICE GREEN BAY WI
900 AM CDT FRI OCT 31 2014

WIZ005-009-010>012-018-019-311500-
NORTH CENTRAL WISCONSIN

CITY           SKY/WX    TMP DP  RH WIND       PRES   REMARKS
IRONWOOD       CLOUDY    28  27  93 N10G17    30.43R
MANITOWISH WTR NOT AVBL
ARBOR VITAE    NOT AVBL
EAGLE RIVER    NOT AVBL
LAND O LAKES   NOT AVBL
RHINELANDER    PTSUNNY   27  22  81 N12G22    30.34R
PHILLIPS       NOT AVBL
ANTIGO         NOT AVBL
TOMAHAWK       NOT AVBL
MERRILL        NOT AVBL
$$

WIZ013-073-311500-
NORTHEAST WISCONSIN

CITY           SKY/WX    TMP DP  RH WIND       PRES   REMARKS
IRON MOUNTAIN  PTSUNNY   30  22  72 N22G32    30.29R
MARINETTE      CLOUDY    34  21  60 N21G30    30.26R
$$

WIZ017-030-035>037-045-311500-
CENTRAL WISCONSIN

CITY           SKY/WX    TMP DP  RH WIND       PRES   REMARKS
MEDFORD        NOT AVBL
WAUSAU         PTSUNNY   30  20  66 N14G26    30.33R
MOSINEE        PTSUNNY   28  23  80 N22       30.34R
MARSHFIELD     PTSUNNY   32  21  64 N16G23    30.35R
WISC RAPIDS    SUNNY     32  21  64 N21G32    30.35R
STEVENS POINT  NOT AVBL
WAUPACA        NOT AVBL
SHAWANO        NOT AVBL
CLINTONVILLE   NOT AVBL
$$

WIZ038-039-048-051-311500-
FOX VALLEY

CITY           SKY/WX    TMP DP  RH WIND       PRES   REMARKS
NWS GREEN BAY  CLOUDY    34  23  64 N24G39    30.25R
APPLETON       PTSUNNY   34  19  55 N26G35    30.24R
OSHKOSH        CLOUDY    34  22  61 N23G30    30.24R
FOND DU LAC    CLOUDY    34  21  59 N21G37    30.24R
$$

WIZ022-050-052-311500-
EAST CENTRAL WISCONSIN

CITY           SKY/WX    TMP DP  RH WIND       PRES   REMARKS
STURGEON BAY   PTSUNNY   34  25  69 N35G45    30.22R
MANITOWOC      LGT RAIN  36  27  69 N23G44    30.18R
SHEBOYGAN      CLOUDY    35  24  64 N26G40    30.17R
$$

LMZ563-521-522-541>543-311500-
LAKESHORE

STATION/POSITION TIME  TEMP    WIND        PRES    VSBY  WAVE
                       AIR SEA DIR/SP/G                  HT/PER
                 (UTC) (F)     (DEG/KT/KT) (MB)    (MI)  (FT/S)
SHEBOYGAN LKSHOR 1300   36 49  340/ 35/ 43 1021.0R
KEWAUNEE LKSHORE 1300   34      10/ 20/ 30 1021.2R
ALGOMA MARINA    1300           10/ 20/ 30   N/A
NORTHPORT PIER   1300   36     360/ 33/ 40 1023.4R
N MID LAKE BUOY  1300   38 50   10/ 33/ 41 1020.2R        10/ 7
SISTER BAY LKSHO 1300          360/ 32/ 44   N/A
CHAMBERS ISLAND  1300   36     340/ 33/ 41 1024.0R
MENOMINEE LKSHOR 1300   35     350/ 26/ 32 1024.7R
$$



USA.gov is the U.S. government's official web portal to all federal, state and local government web resources and services.